Regional Weather Roundup
Issued by NWS

Home | Current Version | Previous Version | Text Only | Print | Product List | Glossary Off
Versions: 1 2 3 4 5 6 7 8 9 10 11 12 13 14 15 16 17 18 19 20 21 22 23 24 25 26 27

000
ASUS45 KSLC 181610
RWRUT

UTAH REGIONAL WEATHER ROUNDUP
NATIONAL WEATHER SERVICE SALT LAKE CITY UT
1000 AM MDT FRI APR 18 2014

UTZ001>011-023>025-181700-

NORTHERN UTAH

CITY           SKY/WX    TMP DP  RH WIND       PRES   REMARKS
HILL AFB       CLOUDY    58  35  41 W6        29.92R
LOGAN          MOSUNNY   56  42  59 N8        29.91R
OGDEN          CLOUDY    59  37  44 W3        29.90R
PROVO AIRPORT  CLOUDY    61  34  36 SE9       29.93R
SALT LAKE CITY CLOUDY    65  25  22 VRB7      29.89R
VERNAL         MOSUNNY   55  25  31 CALM      29.98F
WENDOVER       CLOUDY    59  36  41 CALM      29.93R
HEBER CITY     CLOUDY    64  23  20 W10       29.94S
WEST JORDAN    SUNNY     61  32  33 SE18G25   29.90R

$$

UTZ012>022-026-027-181700-

SOUTHERN UTAH

CITY           SKY/WX    TMP DP  RH WIND       PRES   REMARKS
BRYCE CANYON   MOSUNNY   57  21  24 S12       30.11R
CEDAR CITY     PTSUNNY   59  22  24 NE8       29.98F
MILFORD        PTSUNNY   62  22  21 S13       29.96S
MOAB/CYNLANDS  SUNNY     65  25  22 SE10      29.98F
PRICE          CLOUDY    58  22  24 E6        30.03R
ST GEORGE      CLOUDY    64  25  22 SW3       29.93F
KANAB            N/A     64  21  19 N3        30.04F

$$

REGIONAL REPORTS     COLORADO/ARIZONA

CITY           SKY/WX    TMP DP  RH WIND       PRES   REMARKS
CRAIG, CO      CLOUDY    53  31  42 E13       30.03F
GRAND JUNCTION PTSUNNY   57  27  31 E16       30.02F
RIFLE          MOSUNNY   50  28  42 N3        30.08F
MONTROSE       PTSUNNY   60  29  30 NW3       30.10F
CORTEZ         SUNNY     64  25  22 CALM      30.11F
PAGE, AZ       MOSUNNY   64  22  20 VRB5      29.99R
GRAND CANYON   PTSUNNY   60  19  20 S14       30.10S
KINGMAN        CLOUDY    66  21  18 SE12      29.94R
FLAGSTAFF      CLOUDY    53  21  28 SW12      30.14R

$$

REGIONAL REPORTS    NEVADA/IDAHO/WYOMING

CITY           SKY/WX    TMP DP  RH WIND       PRES   REMARKS
LAS VEGAS, NV  CLOUDY    73  23  15 SW5       29.81S
ELY            PTSUNNY   55  22  27 S12       29.98R
ELKO           CLOUDY    50  36  58 N6        30.02R
POCATELLO, ID  CLOUDY    45  40  82 SW28G37   29.96R
BURLEY         CLOUDY    46  39  76 W12G21    29.98R
EVANSTON, WY   PTSUNNY   58  20  22 SW24G33   29.95R
ROCK SPRINGS   CLOUDY    59  21  23 S26G32    29.93F

$$



USA.gov is the U.S. government's official web portal to all federal, state and local government web resources and services.